Weather History for PHOG - January, 2013

Change the Weather History Date:

Thursday, January 3, 2013

  Actual Average Record
Temperature  
Mean Temperature 74 °F 72 °F  
Max Temperature 80 °F 81 °F 88 °F (1957)
Min Temperature 67 °F 64 °F 56 °F (1958)
Degree Days  
Heating Degree Days 0 0  
Month to date heating degree days 0 0  
Since 1 July heating degree days 0 0  
Cooling Degree Days 9 7  
Month to date cooling degree days 28 21  
Year to date cooling degree days 28 21  
Growing Degree Days 22 (Base 50)    
Moisture  
Dew Point 67 °F    
Average Humidity 80    
Maximum Humidity 97    
Minimum Humidity 62    
Precipitation  
Precipitation 0.23 in 0.10 in 3.99 in (2004)
Month to date precipitation 0.67 0.30  
Year to date precipitation 0.67 0.30  
Snow  
Snow 0.00 in - - ()
Month to date snowfall 0.0  
Since 1 July snowfall 0.0  
Snow Depth 0.00 in    
Sea Level Pressure  
Sea Level Pressure 30.05 in    
Wind  
Wind Speed 15 mph (NE)    
Max Wind Speed 28 mph    
Max Gust Speed 35 mph    
Visibility 8 miles    
Events Rain    
T = Trace of Precipitation, MM = Missing Value Source: NWS Daily Summary

Daily Weather History Graph

Daily Weather History Graph

Search for Another Location

Airport or City:

Trip Planner

Search our weather history database for the weather conditions in past years. The results will help you decide how hot, cold, wet, or windy it might be!

Date:

Astronomy

Jan. 03, 2013 Rise Set
Actual Time 7:03 AM HST 5:57 PM HST
Civil Twilight 6:39 AM HST 6:21 PM HST
Nautical Twilight 6:11 AM HST 6:49 PM HST
Astronomical Twilight 5:44 AM HST 7:16 PM HST
Moon 11:49 PM HST (1/3) 11:11 AM HST (1/3)
Length of Visible Light 11h 42m
Length of Day
10h 54m
Waning Gibbous, 63% of the Moon is Illuminated
Jan 3
Waning Gibbous
Jan 4
Last Quarter
Jan 11
New
Jan 18
First Quarter
Jan 26
Full

Hourly Weather History & Observations

Time (HST) Temp. Dew Point Humidity Pressure Visibility Wind Dir Wind Speed Gust Speed Precip Events Conditions
12:54 AM 69.1 °F 64.9 °F 87% 30.04 in 10.0 mi East 3.5 mph - N/A   Partly Cloudy
1:54 AM 68.0 °F 64.9 °F 90% 30.02 in 10.0 mi NE 11.5 mph - N/A   Scattered Clouds
2:54 AM 68.0 °F 64.9 °F 90% 30.01 in 10.0 mi NE 4.6 mph - N/A   Mostly Cloudy
3:54 AM 70.0 °F 66.9 °F 90% 30.00 in 10.0 mi ENE 9.2 mph - N/A   Scattered Clouds
4:54 AM 69.1 °F 66.0 °F 90% 30.01 in 10.0 mi NE 13.8 mph 21.9 mph 0.00 in   Scattered Clouds
5:54 AM 70.0 °F 66.0 °F 87% 30.01 in 10.0 mi NE 10.4 mph - N/A   Scattered Clouds
6:54 AM 69.1 °F 64.9 °F 87% 30.03 in 10.0 mi NE 10.4 mph - N/A   Scattered Clouds
7:54 AM 72.0 °F 66.9 °F 84% 30.04 in 10.0 mi NE 17.3 mph - N/A   Partly Cloudy
8:54 AM 72.0 °F 68.0 °F 87% 30.06 in 9.0 mi NE 18.4 mph 21.9 mph 0.00 in Rain Light Rain
9:54 AM 75.0 °F 69.1 °F 82% 30.07 in 10.0 mi NE 11.5 mph - 0.00 in   Scattered Clouds
10:54 AM 79.0 °F 64.9 °F 62% 30.05 in 10.0 mi NE 13.8 mph 20.7 mph N/A   Scattered Clouds
11:54 AM 78.1 °F 66.9 °F 68% 30.04 in 10.0 mi NE 18.4 mph 29.9 mph N/A   Scattered Clouds
12:54 PM 78.1 °F 69.1 °F 74% 30.02 in 10.0 mi NE 25.3 mph 31.1 mph N/A   Mostly Cloudy
1:54 PM 75.9 °F 66.9 °F 74% 30.01 in 10.0 mi NE 19.6 mph 25.3 mph 0.00 in   Scattered Clouds
2:54 PM 73.9 °F 68.0 °F 82% 30.01 in 10.0 mi NE 17.3 mph 27.6 mph 0.00 in   Scattered Clouds
3:54 PM 73.0 °F 68.0 °F 84% 30.02 in 7.0 mi NE 20.7 mph 28.8 mph 0.00 in   Scattered Clouds
4:54 PM 71.1 °F 66.9 °F 87% 30.04 in 10.0 mi NE 23.0 mph 29.9 mph 0.00 in   Scattered Clouds
5:54 PM 71.1 °F 66.9 °F 87% 30.05 in 10.0 mi ENE 13.8 mph 21.9 mph 0.00 in   Mostly Cloudy
6:54 PM 69.1 °F 66.9 °F 93% 30.07 in 7.0 mi NE 12.7 mph - 0.00 in Rain Light Rain
7:46 PM 69.8 °F 68.0 °F 94% 30.08 in 8.0 mi NE 21.9 mph 33.4 mph 0.06 in Rain Light Rain
7:54 PM 69.1 °F 66.0 °F 90% 30.10 in 8.0 mi NE 23.0 mph 31.1 mph 0.06 in Rain Light Rain
8:50 PM 69.8 °F 66.2 °F 88% 30.10 in 5.0 mi NE 17.3 mph 25.3 mph 0.02 in Rain Light Rain
8:54 PM 69.1 °F 66.9 °F 93% 30.12 in 4.0 mi NE 16.1 mph 26.5 mph 0.03 in Rain Heavy Rain
9:01 PM 69.8 °F 66.2 °F 88% 30.10 in 4.0 mi NE 13.8 mph 24.2 mph 0.03 in Rain Rain
9:54 PM 69.1 °F 66.0 °F 90% 30.12 in 5.0 mi NE 21.9 mph 31.1 mph 0.07 in Rain Light Rain
10:16 PM 68.0 °F 66.2 °F 94% 30.10 in 5.0 mi ENE 15.0 mph 25.3 mph 0.03 in Rain Light Rain
10:54 PM 69.1 °F 66.9 °F 93% 30.11 in 8.0 mi ENE 11.5 mph - 0.03 in Rain Light Rain
11:54 PM 69.1 °F 66.0 °F 90% 30.11 in 5.0 mi ENE 18.4 mph 25.3 mph 0.04 in Rain Rain